Starlink 32657

operational
NORAD ID: 62475 Int'l Des: 2024-254 Owner: SPXS Country: US Constellation: starlink
LEOCIRCULAR

关于 Starlink 32657

正在加载描述...

实时位置

正在加载3D地球...

即将过境

高度历史

Altitude vs Time

uPlot chart will show altitude changes over time

两行轨道根数

1 62475U 24254P 25300.75082035 .00041840 00000-0 15193-2 0 9999
2 62475 43.0039 50.4391 0001687 270.2557 89.8101 15.27623293 47139
Epoch: Oct 27, 2025 • Age: 21 hours

当前状态

高度 484.8 km
速度 7.63 km/s
星下点 33.92°N, 165.66°W
发射日期 Dec 31, 2024
运行时间 0.8 years
类型 internet

技术详情

分类 Payload
质量 730.00 kg
干质量 700.00 kg
总质量 730.00 kg
长度 0.30 m
直径 4.10 m
跨度 29.00 m
形状 Box + pan
制造商 SPXS
平台类型 Starlink V2M
阶段状态 In Orbit
所有者/国家 SPXS/US

大型星座

Loading constellations...